TimeCDT,TemperatureF,Dew PointF,Humidity,Sea Level PressureIn,VisibilityMPH,Wind Direction,Wind SpeedMPH,Gust SpeedMPH,PrecipitationIn,Events,Conditions,WindDirDegrees,DateUTC
12:56 AM,70.0,60.1,71,30.11,10.0,SSW,3.5,-,N/A,,Clear,200,2013-05-28 05:56:00
1:56 AM,70.0,60.1,71,30.09,10.0,SW,4.6,-,N/A,,Clear,220,2013-05-28 06:56:00
2:56 AM,66.0,61.0,84,30.10,10.0,SE,3.5,-,N/A,,Clear,140,2013-05-28 07:56:00
3:56 AM,64.0,61.0,90,30.11,10.0,SE,4.6,-,N/A,,Clear,140,2013-05-28 08:56:00
4:56 AM,63.0,60.1,90,30.11,10.0,Calm,Calm,-,N/A,,Clear,0,2013-05-28 09:56:00
5:56 AM,61.0,59.0,93,30.12,9.0,Calm,Calm,-,N/A,,Clear,0,2013-05-28 10:56:00
6:56 AM,64.0,62.1,93,30.12,10.0,SE,5.8,-,N/A,,Partly Cloudy,130,2013-05-28 11:56:00
7:56 AM,70.0,64.0,81,30.13,10.0,SSE,5.8,-,N/A,,Partly Cloudy,150,2013-05-28 12:56:00
8:56 AM,73.9,63.0,68,30.14,10.0,SE,11.5,-,N/A,,Partly Cloudy,140,2013-05-28 13:56:00
9:56 AM,77.0,60.1,56,30.14,10.0,SE,11.5,-,N/A,,Scattered Clouds,130,2013-05-28 14:56:00
10:56 AM,79.0,60.1,52,30.14,10.0,ESE,9.2,-,N/A,,Scattered Clouds,110,2013-05-28 15:56:00
11:56 AM,82.0,60.1,47,30.13,10.0,South,6.9,-,N/A,,Scattered Clouds,170,2013-05-28 16:56:00
12:56 PM,84.0,55.0,37,30.11,10.0,South,8.1,-,N/A,,Partly Cloudy,180,2013-05-28 17:56:00
1:56 PM,86.0,54.0,33,30.10,10.0,SSW,10.4,17.3,N/A,,Partly Cloudy,200,2013-05-28 18:56:00
2:56 PM,86.0,57.9,38,30.09,10.0,South,8.1,-,N/A,,Partly Cloudy,180,2013-05-28 19:56:00
3:56 PM,87.1,59.0,39,30.08,10.0,South,6.9,-,N/A,,Partly Cloudy,190,2013-05-28 20:56:00
4:56 PM,87.1,59.0,39,30.06,10.0,Variable,5.8,-,N/A,,Partly Cloudy,0,2013-05-28 21:56:00
5:56 PM,86.0,60.1,41,30.05,10.0,SSW,8.1,-,N/A,,Partly Cloudy,200,2013-05-28 22:56:00
6:56 PM,82.9,62.1,49,30.04,10.0,Calm,Calm,-,N/A,,Partly Cloudy,0,2013-05-28 23:56:00
7:56 PM,78.1,63.0,60,30.05,10.0,Calm,Calm,-,N/A,,Partly Cloudy,0,2013-05-29 00:56:00
8:56 PM,75.0,64.0,69,30.06,10.0,Calm,Calm,-,N/A,,Clear,0,2013-05-29 01:56:00
9:56 PM,72.0,63.0,73,30.08,10.0,Calm,Calm,-,N/A,,Clear,0,2013-05-29 02:56:00
10:56 PM,71.1,63.0,75,30.09,10.0,SSE,5.8,-,N/A,,Clear,160,2013-05-29 03:56:00
11:56 PM,72.0,63.0,73,30.08,10.0,South,4.6,-,N/A,,Partly Cloudy,170,2013-05-29 04:56:00